MDT,Max TemperatureF,Mean TemperatureF,Min TemperatureF,Max Dew PointF,MeanDew PointF,Min DewpointF,Max Humidity, Mean Humidity, Min Humidity, Max Sea Level PressureIn, Mean Sea Level PressureIn, Min Sea Level PressureIn, Max VisibilityMiles, Mean VisibilityMiles, Min VisibilityMiles, Max Wind SpeedMPH, Mean Wind SpeedMPH, Max Gust SpeedMPH,PrecipitationIn, CloudCover, Events, WindDirDegrees
2011-9-1,,,,,,,,,,,,,,,,,,,,,,
2011-9-2,,,,,,,,,,,,,,,,,,,,,,
2011-9-3,,,,,,,,,,,,,,,,,,,,,,
2011-9-4,,,,,,,,,,,,,,,,,,,,,,
2011-9-5,,,,,,,,,,,,,,,,,,,,,,
2011-9-6,,,,,,,,,,,,,,,,,,,,,,
2011-9-7,57,55,53,54,52,52,94,84,82,30.48,30.47,30.46,10,10,7,7,3,,0.00,7,,247
2011-9-8,77,64,51,54,49,41,100,66,31,30.46,30.39,30.28,10,8,2,10,2,,0.00,2,,123
2011-9-9,78,61,44,48,45,39,93,59,24,30.33,30.27,30.18,10,10,4,10,7,,0.00,0,,30
2011-9-10,78,62,46,45,42,37,87,50,24,30.31,30.25,30.17,10,9,2,13,7,,0.00,0,,65
2011-9-11,84,65,46,45,40,34,82,46,16,30.25,30.18,30.09,10,9,2,12,5,,0.00,0,,13
2011-9-12,84,68,53,48,43,36,72,40,20,30.24,30.18,30.13,10,10,10,13,4,21,0.00,1,,261
2011-9-13,80,66,53,54,47,39,88,57,24,30.29,30.21,30.13,10,10,5,28,7,40,0.01,3,,236
2011-9-14,59,55,51,54,49,45,94,84,67,30.30,30.25,30.21,10,8,2,17,6,22,0.16,6,,60
2011-9-15,60,54,48,52,48,46,100,90,68,30.22,30.11,30.03,10,9,4,21,12,25,0.09,6,,50
2011-9-16,75,60,46,52,47,41,100,68,31,30.05,30.00,29.93,10,8,0,10,3,,0.00,4,,175
2011-9-17,73,60,46,54,47,37,94,68,36,30.10,29.99,29.95,10,10,7,15,5,17,0.00,2,Thunderstorm,343
2011-9-18,73,58,44,46,40,34,93,53,25,30.24,30.19,30.14,10,10,4,12,4,,0.00,2,,173
2011-9-19,82,65,48,48,42,37,87,47,20,30.24,30.15,30.02,10,9,3,8,4,,0.00,0,,128
2011-9-20,64,53,42,39,36,32,76,50,34,30.27,30.20,30.06,10,10,10,14,6,23,0.00,2,,170
2011-9-21,66,55,44,39,35,30,81,51,30,30.29,30.26,30.22,10,10,10,14,7,,0.00,2,,82
2011-9-22,77,58,39,39,34,28,81,47,17,30.28,30.22,30.15,10,10,5,12,5,,0.00,0,,203
2011-9-23,87,68,48,45,37,30,82,38,14,30.28,30.22,30.14,10,10,7,14,4,21,0.00,0,,352
2011-9-24,87,70,53,43,36,34,59,32,15,30.17,30.10,30.01,10,10,10,16,5,21,0.00,0,,4
2011-9-25,89,70,51,45,41,37,72,40,17,30.08,29.98,29.87,10,10,8,15,5,20,0.00,0,,17
2011-9-26,89,71,53,46,35,30,72,33,13,30.11,30.00,29.94,10,10,10,21,7,26,0.00,0,,351
2011-9-27,84,68,51,43,38,36,67,36,19,30.23,30.16,30.08,10,10,10,10,4,,0.00,0,,239
2011-9-28,89,71,53,46,38,32,72,36,13,30.14,30.10,30.04,10,9,3,20,4,23,0.00,0,,14
2011-9-29,66,58,51,39,34,30,58,40,30,30.52,30.40,30.18,10,10,9,21,10,24,0.00,2,,55
2011-9-30,78,60,41,46,36,32,81,48,23,30.39,30.25,30.13,10,10,5,9,6,,0.00,0,,132